Wind_Speed
14 13 12 12 12 12 12 12 13 14 14 16 18 19 20 20 19 18 18 18 18 18 19 20 20 20 20 20 21 21 21 21 21 22 22 22 23 23 24 24 25 25 25
15 14 14 14 14 14 14 14 15 16 17 18 19 20 21 21 22 21 21 21 21 21 22 22 22 23 23 23 23 24 24 24 24 25 25 25 26 26 27 28 28 28 28
17 16 16 16 16 16 17 17 18 18 19 21 22 22 23 23 23 24 24 24 24 24 25 25 25 26 26 26 26 27 27 28 28 29 29 29 30 30 30 31 31 31 31
19 18 17 17 18 19 19 19 20 20 20 22 24 25 26 25 25 26 26 27 27 27 27 28 28 28 29 29 29 30 31 31 32 32 33 33 34 34 34 35 35 36 36
19 18 18 18 19 19 20 20 21 22 22 23 24 25 26 27 26 26 27 27 28 29 29 30 30 31 32 32 33 33 34 34 35 35 37 38 38 38 39 40 40 40 40
19 19 18 19 19 20 20 21 22 22 23 24 25 25 26 27 27 26 27 27 28 29 31 32 32 33 34 35 35 36 37 38 39 40 40 41 42 43 43 44 44 44 44
18 19 18 19 19 21 22 23 24 24 25 26 26 27 27 27 27 27 28 28 29 30 32 33 35 36 36 37 38 39 40 41 42 44 45 46 47 47 48 48 48 49 49
19 19 20 20 21 23 24 25 25 25 26 26 27 27 27 29 29 29 30 30 31 32 33 34 36 37 38 39 41 41 43 44 46 48 49 50 50 51 52 53 53 54 54
20 21 22 21 22 23 24 24 26 27 26 25 26 27 27 28 28 30 31 32 32 34 36 37 39 40 41 42 43 45 47 49 50 51 53 54 55 55 57 57 58 58 58
23 23 23 22 23 23 23 24 24 24 25 26 27 28 29 30 31 31 33 34 36 37 38 40 42 43 45 47 48 50 51 52 54 55 56 58 59 60 60 60 61 62 62
24 23 23 23 23 23 24 24 24 25 26 28 30 31 32 33 33 34 35 37 39 40 42 43 45 47 49 51 52 54 55 56 57 58 58 60 61 62 62 63 63 64 65
23 24 25 24 24 24 24 25 26 26 28 30 31 32 33 34 35 37 39 40 41 43 45 46 47 49 52 54 55 56 57 58 59 60 61 62 63 64 64 65 65 65 66
24 25 26 26 26 26 26 26 28 29 31 32 32 33 34 36 38 40 42 44 46 47 48 48 49 52 54 55 57 58 59 60 61 62 64 65 65 65 65 65 65 66 67
27 26 27 28 29 29 30 31 32 33 34 35 35 37 38 40 41 43 45 46 48 50 51 52 53 54 56 56 57 59 60 61 61 62 63 64 64 64 64 65 66 67 67
29 29 30 31 32 33 34 34 35 36 37 38 39 40 41 43 44 45 46 48 49 51 53 54 56 56 56 56 56 57 59 59 60 61 62 63 63 62 62 63 63 62 63
31 32 33 34 36 37 37 38 39 39 40 41 42 42 43 44 46 47 48 50 52 53 55 55 55 54 55 55 55 56 57 57 58 58 58 57 57 57 57 56 56 57 57
35 36 37 38 39 39 39 40 41 41 41 42 42 43 44 45 46 47 49 50 52 53 53 53 54 54 55 55 56 56 56 55 55 54 53 53 52 52 51 52 51 51 50
38 39 40 41 40 40 40 41 41 41 42 42 43 43 44 45 46 46 47 48 48 49 49 49 50 50 50 51 51 51 50 50 50 49 48 48 48 47 47 46 46 45 44
40 40 40 40 40 40 40 40 40 40 41 41 42 42 43 44 44 45 44 44 44 44 44 45 44 45 45 45 46 45 45 44 43 43 43 43 42 41 41 40 40 40 40
39 39 39 39 39 39 39 39 39 40 40 40 40 41 41 41 41 41 42 42 42 42 41 40 40 40 40 40 40 39 39 38 38 38 37 37 36 36 36 36 36 36 36
38 38 37 37 37 37 38 38 38 38 38 38 39 39 38 38 38 39 39 38 37 36 36 36 36 35 35 34 33 33 33 32 32 31 32 31 31 31 31 31 31 32 32
36 35 35 35 35 35 35 35 35 36 35 35 35 35 35 35 34 34 33 33 32 31 31 31 29 28 27 27 26 26 25 25 25 25 26 26 26 26 27 27 27 28 28
32 31 31 32 32 33 33 33 33 33 32 32 31 31 31 30 29 29 28 27 26 26 25 24 24 23 22 22 22 22 22 22 22 22 22 23 23 23 24 24 24 24 24
29 29 29 30 30 31 31 30 30 29 28 28 28 27 26 25 23 22 21 21 21 20 19 19 18 17 17 18 18 19 19 20 20 19 20 21 21 22 22 22 22 22 22
28 28 29 29 29 28 28 27 25 25 24 24 23 22 21 20 19 19 19 18 17 17 16 15 15 15 15 16 17 18 18 18 19 19 20 20 21 21 21 20 21 21 21
27 27 27 27 26 24 23 22 22 22 21 20 19 18 17 17 16 16 16 16 15 15 15 15 16 16 16 16 17 18 18 18 19 19 19 20 20 20 20 20 20 21 21
Wind_Direction
245 249 251 256 259 264 269 274 278 285 290 294 297 296 296 297 296 293 291 289 290 291 288 284 283 282 282 280 279 278 276 276 276 274 273 272 272 272 271 271 271 271 270
245 248 253 258 260 265 270 274 279 286 290 291 292 294 296 293 294 293 288 287 287 288 286 282 280 280 279 279 278 277 276 274 274 273 273 272 272 273 273 272 272 271 270
242 247 253 256 260 264 269 273 278 283 288 290 290 291 293 291 289 288 285 285 285 284 282 279 278 277 277 278 278 277 277 275 274 273 272 272 273 273 273 273 273 272 271
243 248 252 255 260 265 268 272 276 281 285 290 290 290 291 289 289 287 283 282 282 282 280 279 278 277 276 276 277 278 276 277 276 274 273 273 273 272 273 273 272 272 271
245 251 253 258 263 267 272 276 282 283 285 290 290 289 289 285 287 286 283 281 279 278 278 278 277 275 274 274 276 277 276 275 275 275 275 273 273 272 273 272 272 271 272
249 252 258 264 268 270 274 280 282 282 285 288 289 288 288 285 284 283 282 279 278 276 275 274 275 276 274 273 274 276 276 276 276 276 275 274 274 273 273 273 272 272 272
256 261 267 271 272 272 274 279 281 281 284 285 286 287 287 285 283 283 281 278 276 275 275 274 274 276 274 274 275 274 276 277 275 275 275 274 274 273 273 274 273 273 273
265 266 269 271 271 275 276 280 281 282 285 285 285 285 284 283 283 282 281 279 278 276 275 274 277 276 275 276 276 275 277 277 275 274 273 273 274 274 275 274 274 274 273
266 269 270 274 277 279 280 282 282 283 283 284 284 285 284 283 281 281 281 280 279 277 274 273 274 274 274 276 276 276 277 277 276 274 274 273 274 273 275 275 274 273 272
270 272 273 278 281 284 284 285 286 287 286 285 283 282 283 283 282 281 280 279 280 279 277 277 276 275 276 276 276 277 277 276 276 276 275 276 274 274 274 274 274 274 273
273 277 279 284 285 285 285 285 286 288 287 283 282 282 281 282 282 282 282 281 281 280 280 280 279 277 278 278 279 278 278 277 277 277 277 277 276 276 276 275 275 274 273
281 287 290 287 288 289 288 287 287 289 287 285 283 281 281 282 282 283 283 282 282 281 281 282 280 278 278 279 278 278 278 279 278 278 278 278 277 277 277 276 275 273 273
289 292 291 291 294 295 295 293 290 290 289 287 284 282 281 282 283 284 284 283 282 281 281 281 281 280 280 279 279 278 278 278 278 278 278 278 277 277 276 276 275 274 274
293 295 294 293 295 296 295 293 292 290 289 287 285 283 282 283 283 284 285 284 283 283 282 282 282 281 280 280 279 278 278 278 278 278 278 278 277 277 277 276 276 276 275
292 293 292 293 294 293 293 292 291 291 288 287 285 284 284 284 285 285 285 284 284 283 282 282 282 281 281 280 279 278 277 277 277 278 279 279 279 279 279 279 279 278 278
288 289 290 291 291 291 291 291 291 291 290 289 288 287 286 286 286 286 285 284 284 284 283 282 282 281 281 280 279 279 279 279 280 281 281 282 282 282 283 283 283 282 282
288 290 290 291 291 291 291 290 291 291 291 291 290 289 289 288 288 287 286 286 285 285 285 284 283 282 282 281 281 281 281 281 282 283 284 285 286 286 286 286 286 286 286
288 289 290 291 291 292 292 292 293 293 293 292 292 291 290 290 289 289 289 288 288 287 287 286 286 285 285 285 285 284 284 284 284 285 286 286 286 287 288 289 288 287 287
288 289 290 291 292 293 293 294 294 294 294 293 292 291 291 291 290 290 290 289 289 288 288 287 287 287 288 288 287 286 286 286 286 287 287 288 289 289 289 289 290 290 290
289 290 291 291 292 293 294 294 294 295 294 294 293 293 292 292 291 290 290 289 289 288 288 289 290 290 290 290 290 289 289 289 290 290 291 292 292 292 292 293 294 294 294
289 290 291 292 293 293 295 295 295 295 294 294 293 293 293 293 293 293 292 292 291 291 291 292 292 293 294 294 294 294 295 295 295 296 297 297 298 299 300 300 300 300 298
289 290 291 292 293 294 294 294 294 294 295 295 295 295 295 296 297 296 296 295 295 296 296 297 297 298 299 300 300 300 301 301 302 303 304 305 306 306 306 306 306 306 305
287 289 290 291 291 293 294 294 294 295 296 297 299 300 301 300 299 300 301 302 303 303 303 303 304 305 306 307 308 309 310 310 311 313 314 314 315 315 315 314 313 313 312
288 289 290 291 292 293 294 294 296 297 300 302 304 305 306 307 309 310 309 309 310 311 312 313 313 315 315 316 316 316 318 318 319 321 322 322 322 323 323 322 321 321 320
289 290 291 292 292 294 295 297 299 302 305 307 309 311 313 315 317 316 316 316 317 318 319 320 321 322 324 324 325 325 325 326 327 329 330 330 331 331 331 331 330 330 330
289 290 291 292 293 296 298 300 303 305 307 309 312 314 316 319 321 323 324 325 324 325 326 325 324 325 327 327 327 328 329 329 330 332 333 335 337 337 337 338 338 338 339
Height
5883 5883 5884 5884 5885 5885 5885 5885 5884 5883 5882 5881 5880 5880 5879 5879 5878 5877 5876 5874 5873 5872 5872 5871 5870 5869 5868 5867 5866 5865 5864 5863 5863 5862 5861 5860 5859 5859 5858 5857 5857 5856 5855
5879 5879 5880 5881 5881 5881 5881 5881 5880 5879 5878 5877 5876 5876 5875 5874 5873 5872 5871 5870 5869 5868 5866 5865 5864 5864 5863 5862 5861 5860 5859 5858 5857 5856 5855 5855 5854 5853 5852 5851 5851 5850 5849
5875 5875 5876 5876 5876 5876 5876 5876 5876 5875 5874 5873 5872 5871 5869 5868 5867 5867 5866 5864 5863 5862 5861 5859 5859 5858 5857 5856 5855 5854 5853 5852 5851 5850 5849 5848 5847 5846 5845 5845 5844 5843 5842
5870 5870 5871 5872 5872 5872 5872 5872 5871 5871 5870 5868 5866 5865 5864 5862 5861 5860 5859 5858 5856 5855 5854 5853 5852 5851 5850 5849 5848 5847 5846 5845 5844 5843 5842 5840 5839 5838 5837 5836 5835 5835 5834
5865 5865 5866 5866 5866 5866 5866 5866 5866 5865 5864 5863 5861 5859 5857 5856 5854 5853 5852 5851 5850 5848 5847 5846 5845 5844 5843 5842 5841 5839 5838 5837 5836 5834 5833 5831 5830 5829 5828 5827 5826 5825 5824
5859 5860 5860 5861 5861 5861 5860 5860 5860 5859 5858 5857 5855 5853 5851 5850 5848 5847 5845 5844 5842 5841 5840 5838 5837 5836 5835 5834 5833 5831 5830 5828 5827 5825 5823 5822 5820 5819 5817 5816 5815 5814 5813
5853 5854 5854 5854 5855 5854 5854 5854 5854 5853 5852 5850 5849 5847 5845 5844 5842 5840 5838 5837 5835 5834 5832 5831 5829 5828 5827 5826 5824 5823 5821 5819 5817 5815 5813 5811 5809 5807 5806 5804 5803 5802 5801
5847 5847 5848 5848 5848 5848 5848 5848 5847 5846 5845 5844 5843 5841 5840 5838 5835 5833 5831 5830 5828 5826 5825 5823 5821 5820 5818 5817 5815 5813 5811 5808 5806 5804 5801 5799 5797 5795 5793 5791 5790 5788 5787
5842 5842 5842 5842 5842 5842 5842 5841 5841 5840 5839 5837 5836 5834 5833 5831 5829 5827 5824 5822 5820 5818 5816 5814 5812 5811 5809 5807 5805 5802 5800 5797 5795 5792 5789 5786 5784 5781 5779 5777 5775 5774 5772
5836 5836 5835 5835 5835 5835 5835 5834 5834 5832 5831 5830 5828 5826 5825 5823 5821 5819 5816 5813 5811 5809 5807 5805 5803 5800 5798 5796 5793 5791 5788 5785 5781 5778 5776 5773 5770 5767 5765 5762 5759 5757 5756
5830 5829 5828 5829 5829 5828 5828 5827 5827 5825 5824 5823 5821 5818 5816 5814 5812 5810 5807 5805 5802 5799 5797 5794 5792 5789 5787 5784 5781 5777 5774 5771 5767 5764 5760 5757 5754 5751 5748 5745 5743 5741 5738
5823 5823 5823 5823 5822 5822 5821 5820 5819 5817 5816 5814 5812 5810 5808 5806 5803 5800 5797 5794 5791 5789 5785 5783 5780 5777 5774 5770 5767 5763 5759 5756 5752 5748 5745 5741 5737 5734 5731 5728 5725 5723 5721
5816 5816 5816 5816 5815 5814 5813 5812 5811 5809 5807 5805 5802 5800 5798 5795 5793 5790 5787 5783 5780 5777 5773 5770 5767 5763 5760 5756 5753 5749 5745 5741 5736 5732 5728 5724 5721 5717 5713 5710 5707 5704 5702
5809 5809 5809 5808 5807 5806 5805 5803 5802 5800 5798 5795 5793 5790 5787 5784 5781 5778 5775 5772 5768 5764 5760 5757 5753 5749 5745 5741 5737 5733 5729 5725 5720 5716 5711 5707 5703 5699 5695 5692 5689 5685 5682
5802 5802 5801 5800 5799 5797 5796 5794 5792 5790 5787 5784 5781 5779 5776 5773 5769 5766 5763 5759 5756 5751 5747 5742 5738 5734 5729 5725 5721 5717 5713 5709 5704 5699 5695 5690 5686 5682 5678 5674 5670 5666 5663
5795 5794 5793 5791 5789 5787 5785 5783 5781 5778 5776 5773 5770 5767 5764 5760 5757 5753 5749 5745 5741 5737 5732 5727 5722 5718 5713 5709 5705 5701 5696 5692 5688 5683 5679 5674 5670 5666 5662 5658 5654 5650 5646
5786 5784 5782 5781 5779 5777 5775 5772 5770 5767 5764 5761 5758 5754 5751 5747 5743 5739 5735 5731 5726 5721 5716 5711 5707 5702 5698 5693 5689 5685 5680 5676 5672 5668 5664 5660 5656 5651 5647 5643 5639 5635 5631
5776 5775 5773 5771 5768 5766 5764 5761 5758 5755 5752 5749 5745 5742 5738 5734 5730 5726 5721 5716 5712 5706 5702 5696 5691 5687 5682 5678 5674 5670 5666 5662 5658 5654 5651 5647 5643 5639 5635 5631 5626 5622 5618
5767 5764 5762 5760 5758 5755 5752 5750 5747 5744 5740 5737 5733 5730 5726 5721 5717 5712 5708 5703 5698 5693 5688 5683 5678 5673 5669 5665 5661 5657 5653 5650 5646 5642 5639 5635 5631 5627 5623 5619 5615 5610 5606
5756 5754 5752 5749 5747 5744 5742 5739 5736 5733 5729 5725 5721 5718 5713 5709 5704 5700 5695 5690 5685 5680 5676 5671 5666 5662 5658 5654 5650 5646 5643 5639 5636 5632 5628 5625 5621 5617 5613 5609 5605 5601 5596
5746 5744 5742 5739 5737 5734 5731 5728 5725 5722 5718 5714 5710 5706 5701 5697 5692 5687 5682 5678 5673 5669 5665 5660 5656 5652 5648 5644 5641 5637 5634 5631 5627 5624 5621 5617 5613 5609 5605 5601 5597 5592 5587
5737 5734 5732 5730 5727 5724 5721 5718 5715 5711 5707 5703 5699 5694 5690 5685 5680 5676 5672 5667 5664 5660 5655 5652 5648 5644 5641 5637 5634 5631 5628 5625 5621 5618 5614 5610 5607 5602 5598 5594 5590 5585 5580
5728 5726 5723 5721 5718 5715 5712 5708 5705 5702 5698 5693 5689 5685 5680 5675 5671 5667 5663 5660 5656 5652 5649 5645 5642 5638 5635 5632 5630 5627 5623 5620 5617 5613 5609 5605 5601 5597 5593 5588 5584 5579 5574
5720 5717 5715 5712 5709 5706 5703 5700 5696 5693 5689 5685 5681 5676 5672 5668 5665 5661 5658 5654 5651 5647 5643 5640 5637 5635 5632 5629 5626 5623 5620 5616 5613 5609 5605 5601 5597 5593 5588 5584 5579 5574 5569
5712 5709 5707 5704 5701 5698 5695 5692 5689 5685 5682 5678 5674 5670 5667 5663 5660 5657 5654 5650 5647 5644 5640 5638 5635 5632 5629 5626 5623 5620 5617 5613 5609 5606 5602 5598 5593 5589 5585 5580 5575 5570 5565
5704 5701 5699 5696 5693 5691 5688 5685 5682 5679 5676 5673 5669 5666 5663 5660 5657 5653 5650 5647 5644 5641 5638 5636 5633 5630 5627 5624 5621 5618 5614 5610 5606 5603 5599 5595 5591 5586 5582 5577 5572 5567 5562